GSAT0216 (GALILEO 20)

Last updated on Wed Oct 09 2024 00:02:27 GMT+0000 (Coordinated Universal Time)

1 43056U 17079B 24282.22226732 .00000024 00000+0 00000+0 0 9990 2 43056 55.2965 238.4860 0004324 283.8945 76.0367 1.70473980 42458
UTC large
Height (km)
Speed (km/s)
/
Latitude / Longitude
Inclination (degrees)
Orbital Period (minutes)
Azimuth
Elevation
Range (km)
Doppler Factor

Next 0 passes for location: London (51.5072 / 0.1276)

Sorry there are no passes over London.